Погода в Килемарах

Россия / Республика Марий Эл     56°46′36″N   46°51′35″E
темп.,
°C
ветер,
м/с
пор.,
м/с
влажн.,
%
обл.,
%
осадки,
мм/ч
давл.,
гПа
погр.,
м
10 мая, пн
пн1000:00+13ю2695100 0.7 1012132
03:00+12ю2697100 0.9 1015193
06:00+12вюв1195100 1.1 101625
09:00+14ссв1190100 1.1 101830
12:00+14ссз3391100 0.1 1021330
15:00+14с3482100 0.1 1023407
18:00+13ссв3685100 0.0 1024396
21:00+8с499790 0.0 1026269
11 мая, вт
вт1100:00+8ссв399756 0.0 1026279
03:00+8ссв399697 0.0 1027301
06:00+9св489299 0.0 1028304
09:00+15св46725 0.0 1028527
12:00+20св34595 0.0 1028927
15:00+22св34544 0.0 10271284
18:00+20св36687 0.0 1028339
21:00+15св388981 0.0 1028156
12 мая, ср
ср1200:00+15всв398894 0.0 1029224
03:00+13всв27957 0.0 1028126
06:00+15св388443 0.0 1029227
09:00+21в4659100 0.0 1029727
12:00+24вюв46408 0.0 10281799
15:00+25юв35359 0.0 10272599
18:00+21вюв2356100 0.0 102677
21:00+18юв127035 0.0 102713
13 мая, чт
чт1300:00+14вюв22780 0.0 102730
03:00+13в22734 0.0 102744
06:00+16вюв26719 0.0 1027151
09:00+20юв485024 0.0 1026567
12:00+24юв573364 0.0 10251609
15:00+24ююв5739100 0.0 10241900
18:00+18юв396684 0.0 1024323
21:00+17юв31168100 0.0 1023346
14 мая, пт
пт1400:00+17юв3106699 0.0 1023300
03:00+13юв278269 0.0 1023136
06:00+16ююв277299 0.0 1023208
09:00+22ю364844 0.0 1022637
12:00+26ю48345 0.0 10211459
15:00+26ю58365 0.0 10201840
18:00+23ююв4953100 0.0 1019506
21:00+17ююв38816 0.0 1018138